Wind_Speed
31 30 29 28 26 24 22 21 21 19 16 15 16 17 17 18 19 20 20 21 22 22 21 21 21 22 21 21 21 21 20 18 17 15 14 13 13 13 15 16 17 18 19
33 32 28 27 27 28 27 24 22 20 18 17 17 18 18 19 20 20 21 22 23 23 22 21 21 22 22 21 21 21 21 20 18 17 16 15 15 14 16 16 17 18 19
34 35 32 30 29 31 31 28 26 23 20 19 18 18 20 20 19 21 22 23 23 23 22 22 23 23 22 22 21 21 21 22 21 20 19 18 18 18 17 17 16 17 19
36 37 38 37 35 33 33 31 29 25 23 21 20 20 21 21 21 22 23 23 22 21 21 23 24 24 22 20 20 20 21 21 22 21 20 20 20 20 19 17 17 17 19
39 40 41 41 38 35 34 34 32 29 26 24 23 22 22 21 22 23 23 23 22 21 21 23 25 25 25 22 21 21 21 23 23 22 20 20 20 21 20 17 16 18 20
40 41 41 40 38 35 34 35 34 31 28 26 25 24 23 23 22 22 23 24 24 23 24 25 27 28 27 26 25 25 23 24 24 23 22 21 20 20 20 18 18 20 24
39 38 37 37 36 35 35 36 35 33 29 26 26 25 25 25 23 23 22 23 23 23 25 26 27 28 29 28 28 28 26 25 24 23 22 22 21 19 19 18 20 21 29
39 37 36 37 37 35 35 37 38 35 31 29 29 28 27 25 23 22 21 22 22 23 26 27 28 29 28 28 28 28 28 26 24 22 21 21 20 19 19 19 20 23 27
42 39 37 37 38 37 37 39 40 38 34 32 31 29 28 26 24 23 23 24 25 27 28 27 28 28 28 28 27 27 27 25 23 21 20 20 20 20 19 20 21 23 16
45 43 41 39 38 38 38 40 41 40 38 35 32 31 31 30 29 28 27 25 26 27 26 26 28 28 29 30 29 28 26 23 22 20 18 18 18 18 18 19 21 16 11
46 45 44 41 40 40 40 41 42 42 40 37 34 33 33 33 31 30 28 27 26 25 24 25 29 30 31 32 31 29 26 21 20 19 17 16 16 16 16 18 19 18 16
43 43 44 42 40 40 40 41 43 43 43 40 37 35 34 32 31 30 28 27 28 30 28 27 28 30 32 33 32 28 25 22 20 19 17 17 17 16 15 17 18 18 18
42 43 44 44 41 40 40 42 42 43 44 42 39 36 34 31 29 29 27 26 28 30 30 29 28 29 30 30 29 26 23 22 20 19 18 17 17 16 16 17 18 18 18
42 43 45 44 42 40 41 40 41 44 45 43 40 36 32 28 26 26 25 24 26 28 30 31 29 28 28 29 27 24 22 21 19 18 17 16 17 18 17 18 19 19 19
36 36 37 38 39 39 39 39 41 42 40 40 37 33 29 27 26 25 25 26 27 27 27 30 30 28 26 25 25 23 21 20 18 17 17 17 17 19 19 19 19 18 16
30 28 30 33 35 36 37 38 38 35 34 33 31 28 25 24 24 25 26 26 25 25 24 26 26 25 23 22 22 22 22 21 19 17 18 19 20 21 20 19 18 15 13
27 25 26 28 28 28 31 33 34 32 31 30 28 23 21 22 24 25 25 24 24 24 23 23 24 24 23 21 20 20 22 21 20 18 18 19 20 19 18 18 17 15 15
27 24 24 23 22 22 22 23 26 27 26 25 23 22 21 23 24 24 23 23 24 24 24 22 23 23 23 23 21 20 21 21 21 20 20 20 20 18 17 18 18 17 15
28 26 25 24 23 21 21 21 20 19 19 19 20 22 23 25 26 25 24 24 24 25 24 23 23 24 24 24 23 22 21 22 23 22 22 21 18 17 18 19 20 17 14
33 30 28 26 25 24 22 21 21 21 21 22 24 25 26 27 27 26 26 26 26 26 25 24 24 25 26 25 24 24 23 23 24 22 21 21 19 18 19 21 22 20 18
38 38 35 33 32 30 28 27 26 26 26 26 27 27 28 28 28 28 28 28 29 29 27 26 26 26 27 25 24 24 24 24 22 21 21 22 22 22 23 25 26 26 24
38 39 40 40 41 40 38 36 34 34 34 34 34 33 33 32 31 31 31 31 30 30 30 30 29 28 27 25 24 24 24 24 23 22 22 23 24 26 27 28 29 29 27
38 39 41 42 44 45 45 44 43 43 42 41 40 39 38 37 35 33 31 31 32 32 31 30 29 28 26 25 24 25 26 26 25 24 24 24 25 27 27 28 29 28 27
39 40 42 43 44 46 46 46 46 46 45 44 43 42 41 39 36 32 31 31 32 32 32 31 30 29 28 26 25 27 29 30 30 29 29 28 27 26 28 28 27 27 26
37 39 40 42 44 45 45 45 45 45 44 43 42 42 41 40 37 34 33 33 33 33 33 33 33 33 32 31 30 29 30 31 32 33 33 31 31 28 26 28 31 30 29
35 35 36 37 39 40 40 40 40 40 39 38 37 37 38 39 39 37 36 35 35 34 34 35 35 35 35 35 35 34 33 33 33 34 35 34 33 31 29 27 27 28 28
Wind_Direction
319 318 313 307 294 284 280 278 276 277 280 283 288 289 287 285 289 293 295 303 308 310 312 316 319 322 318 309 303 303 306 310 313 311 303 301 290 278 273 269 265 266 268
312 313 308 299 294 289 285 282 278 276 278 281 286 289 289 287 288 290 293 298 303 306 309 311 314 319 319 313 306 305 307 310 312 309 303 296 294 288 282 280 274 272 275
305 306 305 298 292 291 289 284 278 272 272 279 285 289 288 287 288 289 293 297 300 304 308 309 311 315 315 314 310 309 306 307 306 305 300 293 289 289 288 282 283 282 277
302 303 304 302 292 286 287 285 279 270 268 275 281 286 287 286 287 289 293 296 297 300 306 308 310 312 309 308 308 306 305 305 305 302 297 293 290 288 290 281 281 292 281
300 300 301 302 296 283 280 281 279 271 267 271 276 282 284 283 283 286 289 292 294 298 302 304 307 311 309 306 306 307 308 309 309 303 295 292 290 288 289 283 278 288 291
300 299 300 300 296 282 275 277 275 270 267 269 273 276 277 280 283 282 283 286 289 294 298 300 303 305 306 305 306 309 311 311 310 306 298 289 286 285 285 282 276 279 285
296 295 294 294 296 284 274 273 271 266 265 269 273 273 272 275 279 280 280 281 283 288 293 296 297 298 299 301 303 307 311 313 313 308 299 290 284 281 277 276 279 280 275
293 291 290 289 290 287 278 272 267 263 264 269 272 271 271 274 276 277 279 280 283 288 291 292 293 293 293 297 300 306 310 313 315 311 300 291 283 276 271 272 278 275 270
291 291 289 289 286 282 280 274 266 263 263 267 268 268 268 270 270 275 278 279 282 286 289 290 289 288 290 294 299 305 311 315 316 314 300 289 281 272 266 268 272 265 268
286 286 286 284 282 280 277 273 268 265 264 264 263 264 267 268 270 275 276 275 279 284 287 291 292 291 290 291 295 302 310 314 313 312 301 287 280 272 264 267 264 263 277
284 282 280 277 275 274 273 271 268 266 265 261 260 262 267 268 273 277 277 278 281 282 284 290 292 291 289 289 292 298 306 310 306 305 300 286 280 271 261 264 264 274 280
279 275 271 269 267 267 268 268 266 266 267 261 257 260 263 269 277 278 276 278 283 286 289 292 290 288 287 288 292 297 303 305 302 298 296 287 279 270 258 260 269 277 283
275 269 266 263 261 261 264 266 266 266 267 260 256 257 263 270 275 276 273 276 282 286 291 292 289 287 289 292 294 298 301 301 300 294 290 286 277 269 261 263 269 278 281
275 269 265 262 260 259 261 263 264 266 264 257 255 257 262 266 270 270 272 275 279 284 288 290 290 289 291 293 294 295 298 299 298 291 283 280 276 268 264 263 267 274 273
282 275 269 267 266 262 258 258 260 261 259 254 253 255 257 261 264 265 272 278 281 282 282 286 290 291 292 293 291 291 295 294 295 285 276 272 270 268 267 268 271 270 263
283 276 271 269 266 259 255 254 254 254 252 249 250 254 257 259 261 266 272 275 277 277 277 282 286 289 291 291 289 286 288 288 284 282 273 266 267 270 269 271 267 257 239
281 279 275 268 263 256 250 249 249 249 246 249 253 254 261 264 265 267 268 270 273 275 274 277 283 287 289 288 288 285 282 284 283 281 275 267 264 266 273 265 254 235 211
282 283 283 282 278 277 271 261 253 251 255 260 262 263 263 264 265 266 267 269 273 275 274 275 280 286 288 286 286 284 280 281 283 278 272 265 260 264 261 252 241 222 204
282 285 286 290 289 289 289 286 278 274 275 275 272 267 263 263 264 266 266 268 273 275 276 277 281 284 286 285 283 283 283 280 282 275 267 259 252 254 251 243 232 215 204
277 284 286 287 288 287 284 282 282 280 277 274 270 267 265 266 266 267 266 267 270 271 274 278 281 282 281 281 282 281 283 281 281 272 263 253 247 248 244 237 228 217 213
273 278 282 282 283 284 284 283 281 281 280 280 278 276 274 273 270 268 267 267 267 266 268 272 277 280 278 276 277 278 277 278 276 267 261 256 253 245 236 229 225 221 221
271 271 273 276 277 279 280 281 282 281 282 282 282 281 280 279 276 273 269 267 266 266 265 267 271 275 274 272 270 271 271 269 269 265 263 264 267 261 246 230 224 223 225
275 274 273 274 275 276 279 281 283 283 283 283 284 284 284 285 284 281 275 271 267 265 264 265 266 269 269 266 262 261 263 265 267 268 267 265 269 271 262 244 227 221 223
278 277 277 276 276 277 278 279 280 281 281 282 283 284 284 284 284 281 277 273 269 264 262 261 262 263 263 262 261 261 262 265 268 270 269 265 263 266 268 256 235 224 223
278 278 278 278 278 278 279 281 282 282 282 282 282 281 281 280 278 276 274 271 268 264 260 259 259 260 260 260 261 262 264 265 268 269 268 268 264 261 258 258 242 234 232
277 276 277 278 279 281 282 283 283 282 282 281 280 277 273 271 270 268 267 265 263 260 259 259 260 260 261 261 261 262 263 263 266 269 269 270 269 262 253 251 245 240 238
Height
5912 5911 5909 5908 5907 5905 5904 5903 5902 5902 5901 5900 5899 5897 5897 5896 5895 5894 5894 5892 5891 5889 5887 5885 5884 5883 5881 5880 5878 5877 5876 5873 5870 5868 5868 5867 5867 5867 5867 5868 5869 5869 5869
5908 5906 5905 5904 5904 5903 5901 5900 5899 5899 5898 5897 5896 5895 5893 5893 5892 5891 5890 5888 5887 5885 5884 5882 5881 5879 5877 5876 5875 5874 5872 5871 5868 5866 5865 5864 5863 5863 5863 5863 5864 5864 5864
5902 5900 5899 5898 5898 5898 5897 5896 5895 5894 5894 5894 5892 5891 5890 5889 5889 5888 5886 5885 5883 5881 5879 5878 5876 5875 5873 5872 5871 5870 5869 5867 5865 5863 5861 5860 5859 5859 5859 5859 5859 5859 5858
5897 5895 5893 5891 5891 5891 5891 5891 5890 5889 5889 5889 5888 5887 5886 5885 5885 5884 5883 5881 5879 5878 5876 5874 5872 5871 5869 5868 5866 5866 5865 5864 5862 5859 5857 5855 5854 5854 5854 5854 5854 5853 5853
5891 5888 5886 5883 5882 5882 5883 5884 5884 5883 5883 5883 5882 5882 5881 5880 5879 5879 5878 5877 5875 5874 5872 5871 5869 5868 5866 5864 5863 5861 5860 5859 5858 5855 5853 5850 5849 5849 5848 5848 5847 5847 5846
5885 5882 5879 5876 5874 5874 5875 5875 5876 5876 5877 5876 5876 5876 5877 5876 5874 5874 5873 5872 5871 5869 5868 5867 5865 5863 5862 5860 5859 5857 5855 5854 5852 5850 5848 5845 5844 5843 5843 5842 5841 5840 5840
5877 5875 5872 5870 5867 5865 5866 5867 5868 5869 5869 5869 5869 5869 5870 5870 5869 5867 5867 5867 5867 5866 5864 5862 5860 5858 5857 5855 5853 5851 5849 5847 5846 5845 5843 5840 5839 5837 5837 5836 5835 5833 5834
5869 5867 5865 5862 5860 5858 5857 5857 5859 5860 5861 5862 5862 5862 5863 5864 5863 5862 5862 5861 5861 5860 5859 5857 5855 5852 5851 5849 5847 5845 5843 5842 5840 5839 5838 5836 5834 5832 5831 5830 5829 5829 5829
5859 5858 5856 5854 5852 5851 5850 5849 5850 5851 5852 5853 5854 5855 5855 5856 5855 5855 5856 5856 5855 5855 5853 5851 5849 5847 5845 5843 5841 5839 5838 5837 5835 5833 5832 5831 5829 5827 5825 5825 5824 5824 5825
5850 5848 5847 5845 5843 5842 5841 5840 5841 5843 5844 5845 5845 5846 5847 5848 5847 5848 5848 5849 5849 5848 5847 5844 5842 5841 5839 5837 5836 5834 5832 5832 5830 5828 5827 5826 5824 5822 5821 5820 5820 5820 5822
5839 5837 5836 5835 5834 5833 5832 5831 5831 5834 5836 5837 5838 5838 5839 5839 5839 5840 5840 5840 5841 5841 5840 5839 5836 5834 5832 5831 5829 5828 5827 5827 5826 5824 5823 5822 5820 5818 5817 5817 5817 5818 5819
5827 5825 5824 5823 5823 5822 5822 5822 5822 5825 5827 5829 5830 5830 5831 5831 5831 5831 5832 5832 5832 5832 5832 5832 5830 5826 5825 5824 5823 5822 5822 5822 5821 5819 5819 5818 5817 5816 5815 5815 5815 5815 5815
5815 5813 5812 5811 5811 5811 5812 5812 5813 5815 5818 5820 5821 5822 5822 5823 5823 5824 5824 5824 5824 5824 5824 5824 5822 5820 5818 5818 5817 5816 5816 5816 5815 5814 5814 5813 5813 5813 5812 5811 5811 5812 5812
5803 5802 5801 5801 5801 5801 5802 5802 5803 5806 5808 5810 5812 5813 5813 5814 5815 5816 5816 5817 5817 5817 5816 5815 5814 5813 5813 5812 5811 5810 5811 5811 5810 5809 5809 5809 5809 5809 5809 5808 5808 5808 5808
5793 5791 5791 5791 5791 5792 5793 5794 5795 5796 5798 5800 5802 5803 5804 5805 5806 5808 5808 5809 5810 5810 5809 5807 5806 5806 5806 5806 5805 5804 5805 5805 5804 5804 5804 5804 5804 5805 5805 5804 5804 5803 5803
5786 5784 5783 5783 5783 5784 5785 5786 5787 5788 5789 5790 5792 5794 5795 5797 5799 5800 5801 5801 5801 5802 5802 5801 5800 5800 5800 5800 5799 5798 5799 5799 5799 5799 5798 5798 5798 5799 5800 5800 5799 5799 5799
5781 5779 5778 5777 5777 5777 5777 5778 5779 5780 5781 5781 5783 5785 5788 5790 5792 5793 5793 5794 5794 5795 5795 5795 5794 5793 5793 5794 5794 5793 5793 5793 5793 5793 5793 5793 5793 5794 5794 5795 5796 5796 5797
5776 5774 5773 5771 5771 5770 5770 5770 5770 5771 5772 5773 5775 5778 5781 5784 5785 5786 5787 5787 5787 5788 5789 5789 5788 5787 5786 5787 5788 5788 5788 5788 5788 5788 5788 5788 5788 5789 5790 5791 5793 5793 5794
5770 5769 5768 5766 5766 5765 5765 5765 5765 5765 5766 5768 5771 5773 5775 5777 5779 5779 5780 5781 5781 5781 5781 5782 5782 5781 5780 5781 5781 5782 5783 5783 5783 5783 5783 5783 5783 5784 5786 5788 5789 5790 5792
5763 5763 5762 5761 5761 5761 5760 5761 5761 5762 5763 5764 5766 5767 5768 5770 5771 5771 5773 5774 5774 5774 5774 5775 5775 5775 5774 5774 5775 5776 5776 5777 5778 5778 5777 5777 5778 5779 5781 5783 5785 5786 5788
5755 5755 5754 5754 5754 5754 5754 5754 5755 5756 5757 5758 5759 5760 5761 5762 5763 5764 5765 5766 5766 5766 5766 5767 5768 5768 5768 5768 5768 5769 5771 5771 5772 5772 5772 5772 5772 5773 5774 5777 5779 5781 5782
5747 5747 5746 5746 5746 5746 5746 5746 5746 5747 5748 5749 5750 5752 5752 5753 5754 5755 5756 5757 5757 5757 5758 5759 5759 5760 5761 5761 5761 5762 5764 5765 5767 5767 5767 5766 5766 5766 5767 5769 5771 5774 5777
5738 5737 5737 5737 5737 5737 5736 5736 5736 5737 5737 5738 5739 5740 5741 5742 5743 5744 5745 5746 5747 5747 5748 5749 5750 5751 5752 5753 5754 5755 5757 5758 5760 5761 5761 5761 5761 5760 5761 5761 5764 5767 5769
5729 5728 5727 5727 5728 5728 5728 5727 5727 5727 5727 5727 5728 5728 5729 5730 5732 5733 5734 5735 5736 5737 5738 5739 5741 5742 5743 5744 5745 5747 5749 5751 5753 5754 5755 5755 5754 5754 5754 5754 5756 5759 5762
5720 5719 5718 5718 5718 5718 5718 5717 5717 5717 5717 5717 5717 5717 5718 5719 5721 5722 5724 5725 5726 5727 5728 5729 5731 5732 5733 5734 5736 5738 5740 5742 5743 5745 5747 5747 5747 5747 5748 5747 5747 5751 5754
5712 5711 5710 5710 5709 5709 5708 5707 5707 5707 5707 5707 5707 5707 5708 5709 5710 5711 5713 5714 5715 5716 5718 5719 5720 5722 5723 5725 5727 5728 5730 5732 5733 5735 5737 5739 5739 5740 5741 5740 5738 5742 5746